TimeCDT,TemperatureF,Dew PointF,Humidity,Sea Level PressureIn,VisibilityMPH,Wind Direction,Wind SpeedMPH,Gust SpeedMPH,PrecipitationIn,Events,Conditions,WindDirDegrees,DateUTC
12:53 AM,77.0,73.0,88,29.99,10.0,ESE,5.8,-,N/A,,Clear,110,2013-10-03 05:53:00
1:53 AM,75.9,72.0,87,29.98,10.0,East,4.6,-,N/A,,Clear,100,2013-10-03 06:53:00
2:53 AM,75.0,72.0,90,29.96,10.0,Calm,Calm,-,N/A,,Clear,0,2013-10-03 07:53:00
3:02 AM,75.2,71.6,89,29.96,10.0,East,4.6,-,N/A,,Partly Cloudy,90,2013-10-03 08:02:00
3:53 AM,75.0,71.1,87,29.95,10.0,East,3.5,-,N/A,,Clear,90,2013-10-03 08:53:00
4:53 AM,75.0,71.1,87,29.94,7.0,Calm,Calm,-,N/A,,Clear,0,2013-10-03 09:53:00
5:53 AM,75.0,71.1,87,29.95,10.0,Calm,Calm,-,N/A,,Clear,0,2013-10-03 10:53:00
6:53 AM,73.0,70.0,90,29.96,9.0,Calm,Calm,-,N/A,,Clear,0,2013-10-03 11:53:00
7:04 AM,73.4,71.6,94,29.97,6.0,ENE,3.5,-,N/A,,Scattered Clouds,60,2013-10-03 12:04:00
7:13 AM,73.4,71.6,94,29.97,0.1,ENE,3.5,-,N/A,,Mostly Cloudy,70,2013-10-03 12:13:00
7:53 AM,73.9,71.1,91,29.98,0.1,ENE,3.5,-,N/A,,Mist,70,2013-10-03 12:53:00
8:27 AM,75.2,71.6,89,29.99,1.0,Calm,Calm,-,N/A,,Overcast,0,2013-10-03 13:27:00
8:53 AM,75.9,73.0,91,30.00,1.0,East,5.8,-,N/A,,Overcast,80,2013-10-03 13:53:00
9:26 AM,80.6,73.4,79,30.01,3.0,East,3.5,-,N/A,,Mostly Cloudy,90,2013-10-03 14:26:00
9:42 AM,80.6,73.4,79,30.01,10.0,East,3.5,-,N/A,,Scattered Clouds,100,2013-10-03 14:42:00
9:53 AM,81.0,73.9,79,30.01,10.0,ENE,4.6,-,N/A,,Partly Cloudy,60,2013-10-03 14:53:00
10:50 AM,86.0,75.2,70,30.01,10.0,Variable,5.8,-,N/A,,Mostly Cloudy,0,2013-10-03 15:50:00
10:53 AM,87.1,75.9,69,30.01,10.0,ESE,9.2,-,N/A,,Scattered Clouds,120,2013-10-03 15:53:00
11:09 AM,86.0,75.2,70,30.02,10.0,ESE,8.1,-,N/A,,Mostly Cloudy,110,2013-10-03 16:09:00
11:16 AM,86.0,75.2,70,30.01,10.0,East,8.1,-,N/A,,Scattered Clouds,100,2013-10-03 16:16:00
11:26 AM,87.8,75.2,66,30.01,10.0,ESE,9.2,-,N/A,,Mostly Cloudy,120,2013-10-03 16:26:00
11:35 AM,87.8,75.2,66,30.01,10.0,ESE,9.2,-,N/A,,Mostly Cloudy,110,2013-10-03 16:35:00
11:53 AM,88.0,73.0,61,30.00,10.0,East,5.8,-,N/A,,Scattered Clouds,100,2013-10-03 16:53:00
12:53 PM,90.0,72.0,55,29.98,10.0,Variable,5.8,-,N/A,,Mostly Cloudy,0,2013-10-03 17:53:00
1:53 PM,89.1,72.0,57,29.96,10.0,East,9.2,-,0.00,,Overcast,90,2013-10-03 18:53:00
2:43 PM,82.4,73.4,74,29.95,1.5,South,6.9,-,0.11,Rain,Heavy Rain,190,2013-10-03 19:43:00
2:53 PM,82.0,72.0,71,29.95,1.2,Calm,Calm,-,0.17,Rain,Heavy Rain,0,2013-10-03 19:53:00
2:56 PM,84.2,73.4,70,29.95,3.0,Calm,Calm,-,0.00,Rain,Light Rain,0,2013-10-03 19:56:00
3:53 PM,89.1,72.0,57,29.94,10.0,SE,3.5,-,0.00,,Partly Cloudy,130,2013-10-03 20:53:00
4:53 PM,86.0,73.0,65,29.93,10.0,South,3.5,-,N/A,,Scattered Clouds,170,2013-10-03 21:53:00
5:53 PM,84.9,73.0,67,29.93,10.0,East,6.9,-,N/A,,Clear,80,2013-10-03 22:53:00
6:53 PM,82.9,73.0,72,29.93,10.0,ENE,4.6,-,N/A,,Scattered Clouds,70,2013-10-03 23:53:00
7:53 PM,81.0,73.0,77,29.94,10.0,Calm,Calm,-,N/A,,Clear,0,2013-10-04 00:53:00
8:53 PM,79.0,73.0,82,29.96,10.0,Calm,Calm,-,N/A,,Scattered Clouds,0,2013-10-04 01:53:00
9:38 PM,80.6,73.4,79,29.97,10.0,East,3.5,-,0.00,,Overcast,90,2013-10-04 02:38:00
9:48 PM,80.6,73.4,79,29.97,10.0,East,3.5,-,0.00,,Mostly Cloudy,90,2013-10-04 02:48:00
9:53 PM,79.0,73.9,84,29.97,10.0,ESE,4.6,-,0.00,,Scattered Clouds,110,2013-10-04 02:53:00
11:53 PM,78.1,73.0,84,29.97,10.0,East,4.6,-,N/A,,Clear,100,2013-10-04 04:53:00